{"data":{"norad_id":64797,"epoch":"2026-09-20T14:25:38.749152Z","epoch_age_seconds":118882,"freshness":"FRESH","line1":"1 64797U 25150H   26263.60114293  .00001305  00000+0  11713-3 0  9995","line2":"2 64797  70.0033   2.9750 0003599 268.5568  91.5178 14.98333577 66549","mean_motion":14.98333577,"eccentricity":0.0003599,"inclination_deg":70.0033,"raan_deg":2.975,"arg_perigee_deg":268.5568,"mean_anomaly_deg":91.5178,"bstar":0.00011713,"rev_number":6654,"period_min":96.106769687642,"perigee_km":569.54345894859,"apogee_km":574.54619982939,"semimajor_km":6950.181829389,"source":"CELESTRAK","updated_at":"2026-09-21T09:00:35.443754Z"}}